Temperature
27 24 23 24 25 26 26 26 25 26 27 26 25 25 25 25 25 24 24 23 23 23 22 22 22 22 22 21 21 20 20 20 19 19 19 19 18 18 18 18 18 18 18 18
24 24 25 27 27 27 26 25 25 26 27 26 25 24 24 25 25 25 24 24 23 22 22 22 22 22 21 21 21 21 20 20 20 19 19 19 18 18 18 18 18 18 18 18
25 26 28 28 28 27 26 25 26 26 26 26 25 24 24 24 25 25 24 24 24 23 23 22 22 22 21 21 21 21 20 20 19 19 19 18 18 18 18 18 18 18 18 18
25 27 28 28 28 28 26 27 27 27 25 23 24 22 23 23 24 24 24 24 24 23 23 23 22 22 21 21 21 21 20 20 19 19 19 18 18 18 18 18 18 18 18 18
26 27 27 27 28 28 27 28 28 27 25 23 23 22 22 23 23 23 23 24 24 23 23 23 22 22 22 22 21 21 20 20 19 19 19 18 18 18 18 18 18 18 18 18
27 28 28 28 29 29 28 27 26 24 22 23 23 23 22 22 23 23 23 24 23 23 23 23 22 22 22 22 21 21 20 20 19 19 19 19 18 18 18 18 17 17 17 17
26 27 28 29 28 28 27 24 23 23 22 22 23 23 22 23 24 24 24 24 24 23 23 23 22 22 22 21 21 21 20 20 19 19 19 19 18 18 18 18 18 17 17 17
25 25 27 28 28 27 26 24 23 23 22 22 23 23 23 24 25 25 25 24 24 23 23 22 22 22 22 22 21 21 20 20 20 19 19 19 18 18 18 18 18 17 17 17
24 25 28 29 29 28 27 24 23 22 22 22 22 23 23 24 24 24 24 23 23 23 23 22 22 22 22 22 21 21 21 20 20 19 19 19 18 18 18 18 17 17 17 17
25 25 26 28 28 28 27 25 22 21 22 22 22 23 22 23 23 23 23 23 23 23 23 22 22 22 22 21 21 21 20 20 20 19 19 18 18 18 18 17 17 17 17 17
25 24 25 26 27 27 26 25 22 20 20 21 21 22 24 23 22 23 23 23 23 23 23 22 22 22 21 21 21 20 20 20 20 19 19 18 18 18 17 17 17 17 17 17
24 22 23 25 26 27 26 25 22 22 21 20 20 21 24 23 23 23 23 23 23 23 23 22 22 21 21 21 21 20 20 20 19 19 19 18 18 18 17 17 17 17 17 17
24 22 22 23 24 25 26 25 23 21 20 20 20 21 22 22 22 23 23 23 23 23 22 22 21 21 21 21 20 20 20 20 19 19 19 18 18 18 18 17 17 17 17 16
24 21 22 23 23 24 25 25 24 22 20 20 21 21 21 22 21 22 23 23 22 22 22 22 21 21 21 20 20 20 20 20 19 19 19 18 18 18 18 17 17 17 17 16
22 22 23 23 24 25 25 25 25 23 22 21 21 21 21 21 21 21 22 22 22 22 22 21 21 21 21 20 20 20 20 19 19 19 19 18 18 18 17 17 17 17 16 16
20 22 23 23 24 25 25 25 25 24 24 23 22 21 21 21 22 21 21 21 21 21 21 21 21 21 20 20 20 19 19 19 19 18 18 18 18 17 17 17 17 16 16 16
20 20 21 21 22 23 22 23 23 23 23 23 22 21 21 20 21 21 21 21 21 21 21 21 21 21 20 20 20 19 19 19 18 18 18 18 17 17 17 17 16 16 16 16
20 19 18 19 21 22 21 22 23 23 22 22 21 21 21 21 21 22 22 21 21 21 20 20 20 20 20 19 19 19 19 18 18 18 17 17 17 17 17 16 16 16 16 16
19 19 18 18 19 20 21 23 23 22 21 22 21 21 21 21 21 20 21 21 21 21 21 20 20 20 19 19 19 18 18 18 17 17 17 17 16 16 16 16 16 16 16 15
18 17 18 18 20 20 20 22 23 22 20 21 21 20 20 20 18 19 21 21 21 20 20 20 20 19 19 19 18 18 18 18 17 17 17 17 16 16 16 16 16 15 15 15
19 18 18 18 18 18 20 22 22 20 19 21 21 21 20 19 19 21 21 21 20 20 20 20 19 19 18 18 18 18 18 17 17 17 17 16 16 16 16 16 15 15 15 15
17 17 17 17 17 18 20 20 20 19 21 21 21 21 21 21 21 20 20 20 20 19 19 19 19 18 18 18 18 17 17 17 17 16 16 16 16 16 15 15 15 15 15 14
17 16 16 16 17 18 20 20 21 21 21 21 21 21 21 20 20 20 20 20 20 19 19 19 18 18 17 17 17 17 17 17 16 16 16 16 16 15 15 15 15 15 14 14
17 17 16 16 17 18 20 21 21 21 21 21 21 21 21 20 20 20 19 19 19 19 18 18 18 18 17 17 17 17 16 16 16 16 16 15 15 15 15 15 14 14 14 14
17 16 15 16 17 18 20 20 21 21 21 21 20 20 20 20 19 19 19 19 19 18 18 18 18 17 17 17 16 16 16 16 16 15 15 15 15 15 15 14 14 14 14 14
16 16 16 16 17 16 18 20 20 20 20 20 20 20 19 19 19 19 19 18 18 18 18 17 17 17 17 16 16 16 16 15 15 15 15 15 15 15 14 14 14 14 14 14
Wind_Speed
1 3 3 7 7 6 4 3 4 6 3 1 3 5 6 8 10 11 10 11 12 11 10 11 11 11 10 9 8 7 7 6 5 3 3 2 2 1 1 2 3 3 3 4
3 5 10 8 8 5 4 3 4 5 4 1 2 3 7 8 11 13 15 14 13 11 10 11 10 10 10 10 9 8 7 7 6 4 3 3 3 2 2 1 2 2 3 3
8 9 7 6 7 5 6 6 6 5 3 2 2 2 2 5 6 8 11 12 13 14 14 13 12 10 10 9 9 9 7 6 6 5 3 2 2 2 1 1 1 1 3 3
7 9 7 7 9 6 7 8 6 4 2 2 3 2 5 5 5 8 10 10 12 13 12 12 12 11 11 11 10 8 7 7 6 6 6 5 4 3 3 2 2 1 2 2
8 7 6 8 10 7 8 7 3 3 4 1 0 3 5 3 6 9 10 12 12 12 14 14 14 14 12 11 10 8 7 7 7 7 7 6 4 3 2 2 2 1 1 1
9 7 6 8 8 6 5 1 5 5 4 1 4 3 5 6 10 9 10 11 11 11 12 12 11 11 10 10 9 8 8 7 7 7 7 7 6 5 3 2 2 1 1 1
7 8 6 5 4 5 2 5 4 5 4 4 3 2 6 8 9 10 12 12 11 11 11 11 11 11 10 10 10 9 9 8 8 8 8 7 7 6 5 4 4 3 1 1
4 8 6 3 6 5 3 8 7 5 5 5 2 3 6 5 4 6 8 10 11 10 11 12 12 11 10 11 11 10 9 8 8 8 7 6 6 5 4 5 4 4 3 3
6 7 6 5 4 6 3 3 8 7 2 1 3 3 4 1 2 4 6 9 11 10 10 11 11 10 10 10 10 10 9 8 8 9 7 6 6 5 5 4 4 3 3 3
8 5 7 4 2 1 6 6 5 5 4 2 3 3 4 4 4 6 8 9 9 9 9 10 10 9 8 9 8 8 9 9 7 7 7 6 5 5 5 4 4 3 3 2
6 5 6 3 2 4 0 3 5 5 5 6 3 6 5 8 9 9 9 8 10 11 11 10 9 9 8 7 7 8 8 7 7 7 6 5 5 5 5 4 4 4 4 4
4 5 4 7 6 5 5 5 7 5 3 4 4 6 4 4 6 8 7 8 9 10 9 9 9 8 7 7 8 8 7 7 7 7 6 5 5 4 4 4 4 4 5 4
3 5 0 6 7 4 2 1 3 6 5 4 5 5 2 3 3 3 6 7 8 9 9 8 8 7 7 8 8 7 8 8 7 7 6 5 4 4 4 4 4 4 4 3
4 4 6 8 7 4 2 2 2 5 4 4 6 6 3 2 3 2 4 7 7 7 9 9 7 7 7 7 7 7 7 7 7 7 7 6 6 5 5 4 4 3 3 2
5 2 3 5 4 2 1 2 2 3 6 7 7 8 8 5 5 3 5 7 8 7 7 8 8 7 7 6 6 6 6 5 7 7 6 6 5 5 4 3 3 3 2 2
4 2 1 3 3 1 2 3 0 1 2 4 4 4 4 4 6 5 5 8 8 7 7 7 6 6 6 7 7 7 6 6 6 7 6 5 4 4 4 4 3 3 3 3
2 3 2 3 4 3 3 3 0 1 1 4 5 6 5 5 7 8 8 8 9 8 8 7 7 7 7 7 7 8 8 6 6 6 6 5 5 4 4 4 3 3 3 2
4 3 3 1 3 2 6 3 3 3 2 1 3 4 6 8 7 6 6 7 7 7 6 5 4 4 4 5 5 5 5 6 6 5 5 5 5 5 4 3 3 4 3 3
6 6 3 3 2 3 5 3 1 2 2 2 1 5 6 6 5 3 2 5 6 6 6 5 4 3 3 5 5 5 4 4 5 5 5 5 5 5 4 4 4 4 3 3
5 6 5 3 3 4 5 5 1 4 2 4 1 5 6 6 3 3 2 4 5 4 4 5 4 4 3 3 5 6 5 4 5 5 5 5 5 5 5 5 5 3 4 4
4 3 2 3 3 5 5 4 3 3 5 5 2 4 6 5 6 5 4 5 5 5 5 5 5 3 2 3 5 5 4 5 5 5 4 4 4 5 5 4 4 3 4 3
3 2 1 3 3 6 5 2 3 6 4 1 2 3 5 5 5 5 6 6 5 4 4 5 4 2 1 2 4 4 4 5 4 3 3 4 4 4 4 4 3 3 3 3
2 5 5 5 6 5 1 2 3 4 2 1 2 3 6 6 6 5 5 6 5 4 4 5 5 3 1 2 3 3 3 3 2 3 3 3 3 3 3 4 4 3 3 3
2 1 3 0 2 2 1 1 1 2 2 2 3 4 6 6 6 5 5 4 4 3 3 3 5 5 4 2 3 4 4 3 3 3 4 3 3 3 3 3 4 4 4 4
3 1 1 1 3 3 3 1 1 2 3 3 3 4 4 6 5 5 4 4 4 2 2 3 3 4 5 4 3 3 3 3 3 3 4 4 4 4 3 3 3 5 5 6
3 3 3 5 6 3 4 3 2 2 2 2 4 3 2 4 5 4 4 4 4 3 2 2 2 3 4 4 4 3 3 3 3 2 3 4 4 3 3 3 2 3 4 6
Wind_Direction
296 84 234 241 230 227 217 216 257 267 246 135 180 180 189 194 179 177 175 172 174 179 173 166 166 164 161 157 153 158 156 165 159 149 149 142 150 149 131 148 147 143 152 151
351 264 243 243 254 252 233 236 263 284 287 151 175 211 200 199 193 186 178 177 177 176 169 171 169 166 167 167 166 166 168 170 170 167 168 161 155 157 153 158 144 149 150 150
221 245 251 258 261 255 260 221 225 223 294 29 95 319 228 217 193 187 180 177 176 178 177 173 171 170 167 171 173 174 173 171 170 161 142 124 93 75 84 118 176 203 165 155
242 247 251 253 255 238 260 238 216 212 170 229 144 222 259 211 199 193 187 180 182 182 176 171 170 172 175 180 177 173 170 169 171 163 157 151 154 168 194 184 184 203 184 160
246 239 247 256 247 230 237 246 207 181 152 135 254 159 261 189 199 210 199 188 187 183 177 175 176 177 179 180 177 173 168 172 176 173 173 166 166 177 166 147 162 187 205 182
253 253 230 236 253 232 219 7 27 47 75 330 250 171 252 215 207 204 199 190 184 174 172 176 177 172 176 179 174 168 167 179 181 175 172 171 170 166 150 153 166 195 223 252
289 284 263 236 264 296 81 85 31 358 360 263 270 153 244 231 210 195 191 188 179 170 168 168 168 170 175 175 173 170 173 180 179 175 177 179 179 174 173 177 178 179 189 236
245 280 264 233 193 211 217 142 163 199 224 269 319 222 253 236 213 182 172 168 168 168 166 166 171 170 173 174 175 175 178 181 180 180 187 184 179 179 181 182 179 185 196 211
204 250 267 257 212 161 178 188 173 150 175 202 278 283 307 262 129 126 135 146 160 160 159 161 166 174 177 176 176 176 177 181 184 185 186 184 179 176 178 179 175 186 200 208
180 237 276 282 8 320 166 156 99 118 150 232 275 251 230 213 176 151 155 162 162 155 155 158 163 171 176 179 178 170 169 178 184 182 184 184 181 180 179 174 175 184 199 210
167 188 288 330 231 224 185 114 115 126 148 158 219 267 231 201 188 172 174 167 163 163 164 164 166 172 170 166 167 172 180 180 183 183 181 178 181 183 181 184 194 193 199 204
182 152 241 260 258 208 176 172 147 151 198 161 166 261 290 184 184 178 175 166 163 163 162 156 155 158 163 164 165 167 172 175 179 178 174 176 175 179 183 196 207 204 205 210
155 128 140 327 327 339 51 109 146 138 131 154 167 246 306 101 127 166 158 158 155 149 149 147 148 153 166 172 172 173 176 179 178 171 170 174 177 178 187 198 203 204 209 214
121 124 167 202 226 236 279 288 153 127 148 187 207 217 264 173 139 151 153 144 141 151 154 152 154 165 171 173 175 176 180 182 177 170 170 178 188 192 196 197 194 199 201 201
89 131 202 222 223 191 227 244 185 170 177 183 208 205 222 197 165 176 165 140 133 138 148 157 164 171 170 168 172 175 180 181 175 168 175 190 195 195 196 193 195 198 204 211
60 114 26 323 298 341 339 331 38 118 151 169 163 231 233 179 128 122 149 144 142 146 152 155 167 173 173 174 178 179 179 181 172 172 185 193 192 192 195 199 197 198 208 217
65 106 78 285 304 26 324 297 186 126 147 168 196 220 179 153 155 165 166 160 162 163 162 167 174 183 187 186 179 180 185 178 173 180 186 188 187 192 201 207 206 214 218 217
140 108 129 178 28 248 246 258 108 100 50 96 165 173 168 170 173 167 156 155 154 152 154 163 168 169 167 165 166 165 164 167 176 185 192 192 190 201 207 203 212 222 217 217
151 143 126 123 161 265 289 303 98 103 344 349 122 146 140 115 83 43 92 130 147 151 149 152 152 147 141 148 156 142 142 156 167 180 191 200 198 201 204 210 221 224 215 223
78 108 126 136 160 223 252 284 251 96 339 309 140 155 147 116 122 238 202 127 113 123 133 126 115 103 113 141 149 144 153 162 184 196 199 199 197 198 208 217 223 219 211 223
28 36 120 165 199 251 269 299 72 135 234 271 166 149 143 159 187 193 149 124 118 119 129 124 119 124 159 165 149 157 166 194 207 200 193 197 202 206 208 210 215 218 215 221
163 152 193 157 183 244 283 37 152 214 228 204 137 156 139 143 136 134 136 136 130 121 130 135 136 146 194 157 143 157 202 215 205 183 185 199 206 210 206 199 215 213 205 215
174 181 178 183 211 236 259 166 195 178 158 151 141 134 131 137 136 139 149 149 148 147 150 154 150 154 186 160 150 170 234 231 189 183 196 207 210 213 204 200 209 213 209 215
313 70 111 135 266 269 276 118 64 108 113 124 132 130 128 145 151 150 153 157 155 152 154 153 151 160 186 191 177 189 212 199 178 201 219 217 210 217 221 217 209 208 215 219
258 37 73 275 282 338 337 42 111 71 80 85 93 106 131 131 139 144 150 160 158 152 152 154 166 177 186 181 200 215 200 179 187 211 218 217 215 214 225 236 232 223 224 217
239 188 178 233 238 207 255 262 137 109 92 93 91 76 104 134 144 146 162 175 167 164 160 170 183 186 190 185 196 217 202 187 193 218 229 222 218 219 218 225 265 275 246 238
Height
1494 1502 1507 1502 1499 1499 1500 1505 1508 1500 1491 1497 1501 1502 1500 1500 1501 1502 1504 1506 1508 1510 1512 1515 1516 1518 1520 1521 1522 1523 1524 1525 1526 1527 1528 1528 1529 1530 1530 1530 1531 1532 1532 1532
1501 1503 1494 1491 1491 1494 1498 1505 1506 1499 1491 1495 1502 1502 1498 1497 1498 1497 1499 1502 1505 1509 1511 1513 1515 1516 1518 1519 1521 1522 1523 1524 1525 1526 1527 1528 1528 1529 1529 1530 1530 1531 1531 1531
1501 1494 1486 1489 1491 1495 1498 1502 1501 1499 1495 1496 1502 1509 1503 1498 1497 1498 1499 1499 1502 1505 1507 1510 1512 1514 1516 1518 1519 1520 1521 1522 1524 1525 1526 1527 1528 1528 1528 1529 1529 1530 1530 1531
1493 1486 1486 1488 1489 1491 1500 1487 1489 1492 1504 1512 1508 1526 1509 1500 1498 1497 1497 1499 1500 1503 1505 1507 1509 1511 1513 1515 1517 1518 1519 1521 1522 1523 1524 1525 1525 1526 1527 1528 1528 1529 1529 1530
1490 1483 1485 1487 1483 1482 1487 1480 1485 1490 1501 1512 1509 1521 1515 1500 1500 1496 1494 1495 1497 1499 1502 1504 1507 1508 1511 1514 1515 1517 1518 1519 1520 1522 1523 1523 1524 1525 1526 1527 1527 1528 1528 1529
1481 1476 1478 1477 1474 1474 1477 1483 1488 1495 1507 1523 1512 1518 1518 1504 1495 1491 1491 1492 1494 1497 1500 1503 1506 1508 1510 1512 1514 1515 1516 1517 1519 1520 1521 1522 1523 1524 1524 1525 1526 1526 1527 1527
1486 1478 1472 1471 1476 1475 1478 1499 1520 1524 1531 1527 1509 1514 1511 1490 1484 1485 1486 1488 1492 1495 1498 1501 1504 1506 1508 1510 1511 1512 1514 1515 1516 1518 1519 1521 1521 1522 1523 1523 1524 1524 1525 1525
1499 1495 1474 1468 1473 1480 1481 1494 1521 1533 1535 1526 1512 1513 1499 1483 1480 1481 1483 1486 1490 1493 1496 1498 1500 1503 1505 1507 1508 1510 1511 1512 1514 1516 1517 1519 1520 1521 1521 1522 1523 1523 1524 1524
1495 1492 1468 1464 1464 1469 1481 1490 1492 1511 1518 1526 1519 1506 1492 1482 1481 1483 1485 1486 1489 1491 1494 1496 1498 1501 1503 1505 1506 1508 1509 1511 1512 1514 1516 1517 1518 1519 1519 1520 1521 1521 1522 1522
1479 1488 1473 1465 1463 1466 1470 1479 1497 1512 1527 1533 1522 1513 1506 1490 1486 1484 1484 1484 1486 1489 1492 1494 1496 1499 1501 1503 1504 1506 1508 1509 1511 1512 1514 1515 1516 1517 1518 1519 1519 1519 1520 1520
1471 1484 1480 1472 1474 1476 1475 1481 1493 1507 1512 1527 1531 1517 1485 1484 1481 1481 1481 1482 1485 1487 1490 1492 1494 1497 1499 1501 1503 1505 1506 1507 1509 1510 1512 1513 1514 1515 1516 1516 1516 1517 1517 1517
1469 1481 1489 1478 1465 1462 1467 1475 1488 1505 1511 1515 1522 1513 1478 1477 1476 1477 1479 1481 1484 1486 1488 1490 1493 1496 1498 1499 1501 1503 1504 1505 1507 1508 1510 1511 1512 1512 1513 1513 1514 1514 1514 1515
1466 1482 1497 1494 1484 1471 1471 1473 1478 1489 1502 1511 1519 1508 1479 1476 1478 1478 1478 1480 1482 1485 1487 1489 1492 1494 1496 1498 1499 1500 1502 1503 1505 1506 1507 1508 1509 1509 1510 1510 1511 1511 1511 1511
1460 1478 1490 1497 1490 1478 1477 1474 1474 1485 1502 1506 1502 1495 1484 1479 1478 1478 1478 1479 1482 1485 1486 1488 1490 1493 1494 1495 1497 1498 1499 1501 1502 1503 1504 1505 1506 1506 1507 1507 1508 1508 1508 1508
1462 1476 1475 1474 1469 1469 1471 1471 1471 1477 1483 1493 1491 1488 1482 1477 1477 1478 1478 1480 1482 1483 1485 1486 1488 1490 1492 1493 1495 1496 1497 1499 1500 1501 1502 1502 1503 1504 1504 1505 1505 1505 1505 1505
1465 1474 1474 1475 1468 1468 1471 1469 1469 1471 1473 1478 1482 1483 1475 1474 1475 1478 1479 1480 1481 1482 1484 1485 1487 1489 1490 1491 1493 1494 1495 1496 1498 1498 1499 1500 1501 1502 1502 1502 1502 1502 1502 1502
1471 1476 1484 1488 1476 1473 1483 1474 1472 1473 1471 1474 1481 1479 1473 1475 1475 1475 1477 1478 1480 1481 1482 1484 1485 1486 1487 1489 1490 1491 1493 1494 1495 1496 1497 1497 1498 1499 1499 1499 1499 1499 1499 1499
1470 1478 1487 1490 1486 1497 1484 1467 1466 1469 1470 1469 1470 1470 1470 1471 1472 1473 1475 1477 1478 1479 1480 1481 1482 1483 1485 1487 1488 1490 1491 1492 1493 1494 1494 1495 1496 1496 1497 1497 1496 1496 1496 1496
1461 1472 1485 1494 1497 1492 1478 1468 1466 1471 1475 1470 1470 1469 1470 1471 1473 1475 1476 1476 1476 1477 1478 1480 1481 1483 1483 1484 1486 1488 1489 1490 1491 1491 1492 1492 1493 1493 1494 1494 1493 1494 1494 1493
1462 1468 1482 1490 1494 1497 1482 1466 1463 1468 1479 1469 1468 1468 1469 1470 1479 1478 1475 1475 1476 1477 1478 1479 1481 1482 1483 1483 1485 1486 1487 1487 1488 1488 1489 1490 1490 1491 1491 1491 1491 1491 1491 1490
1473 1476 1483 1489 1493 1487 1471 1464 1463 1481 1481 1469 1467 1467 1467 1469 1471 1472 1473 1474 1475 1476 1478 1479 1480 1481 1481 1482 1482 1483 1484 1484 1484 1485 1486 1487 1487 1488 1488 1488 1488 1488 1488 1487
1478 1482 1485 1488 1493 1489 1466 1465 1470 1471 1466 1466 1466 1466 1466 1467 1469 1471 1472 1473 1474 1475 1477 1477 1478 1479 1480 1480 1480 1481 1482 1482 1482 1483 1483 1483 1484 1484 1485 1485 1485 1485 1485 1484
1473 1474 1478 1480 1480 1468 1464 1464 1464 1463 1464 1464 1464 1464 1465 1466 1467 1469 1470 1471 1473 1473 1474 1476 1476 1476 1477 1478 1479 1479 1480 1480 1480 1480 1480 1480 1480 1481 1481 1481 1481 1481 1481 1480
1469 1467 1471 1473 1469 1465 1464 1463 1463 1462 1462 1463 1463 1464 1465 1465 1465 1467 1468 1470 1471 1472 1472 1473 1473 1474 1475 1476 1477 1478 1478 1478 1478 1477 1477 1477 1477 1477 1477 1477 1477 1477 1477 1476
1468 1468 1471 1471 1467 1464 1462 1462 1462 1462 1462 1462 1462 1463 1463 1463 1464 1465 1466 1468 1469 1470 1471 1471 1471 1472 1472 1472 1473 1474 1475 1475 1474 1474 1473 1473 1473 1473 1473 1473 1473 1473 1473 1473
1465 1467 1470 1470 1465 1465 1463 1462 1462 1462 1462 1462 1461 1462 1462 1463 1463 1464 1465 1466 1467 1468 1468 1468 1468 1469 1469 1470 1470 1471 1472 1471 1471 1470 1470 1469 1469 1469 1469 1469 1469 1469 1469 1469